Tracking 29606 objects as of 18-Sep-2024
HD Live streaming from Space Station
objects crossing your sky now

COSMOS 886 DEB

Track COSMOS 886 DEB now!
10-day predictions


NORAD ID: 9653
Int'l Code: 1976-126K
Perigee: 571.5 km
Apogee: 1,770.0 km
Inclination: 65.8 °
Period: 108.6 minutes
Semi major axis: 7541 km
RCS: 0.0715 m2 (small)
Launch date: December 27, 1976
Source: Commonwealth of Independent States (former USSR) (CIS)
Launch site: TYURATAM MISSILE AND SPACE COMPLEX (TTMTR)

Note: This is SATELLITE DEBRIS
Your satellite tracking list
Your tracking list is empty




NASA's NSSDC Master Catalog

Two Line Element Set (TLE):
1 09653U 76126K   24261.96520493  .00007085  00000-0  27964-2 0  9998
2 09653  65.7683 218.0210 0794588 100.3110 268.8409 13.25549615259409
Source of the keplerian elements: AFSPC